Location: Unspecified
(0.0000°N, 0.0000°E)
Time: 09:25:38
(UTC+00:00)

A-11 Canister half - Pass Details

Date: 13 June 2024
Orbit: 1515 x 1684 km, 47.2° (Epoch: 23 July)

Event Time Altitude Azimuth Distance (km) Brightness Sun altitude
Rises 18:07:09 0° 239° (WSW) 4,926 12.2 -1.6°
Reaches altitude 10° 18:10:38 10° 247° (WSW) 3,943 11.9 -2.4°
Maximum altitude 18:19:42 37° 310° (NW) 2,393 10.9 -4.5°
Drops below altitude 10° 18:28:44 10° 15° (NNE) 3,900 11.2 -6.5°
Sets 18:32:13 0° 23° (NNE) 4,867 11.6 -7.3°
